User: anonymous   Login
Location: Laguna de la Cañada del Gallo
(40.3974°N, 5.2096°W)
Time: 08:45:46
(UTC+00:00)
Language:

SPOT 5 - Orbit

View from above orbital plane
View from above orbital plane
View from above satellite
View from above satellite

Ground track
Ground track

The orbit data is extracted from the following two-line orbital elements,

1 27421U 02021A   24170.15926782  .00000661  00000-0  15225-3 0  9996
2 27421  98.0881 226.5167 0132875  19.9858 340.6473 14.53321475156922
Epoch (UTC): 18 June 2024 03:49:20
Eccentricity: 0.0132875
inclination: 98.0881°
perigee height: 620 km
apogee height: 809 km
right ascension of ascending node: 226.5167°
argument of perigee: 19.9858°
revolutions per day: 14.53321475
mean anomaly at epoch: 340.6473°
orbit number at epoch: 15692

The dashed part of the orbit path shows where the satellite is in the earth's shadow,  

DLR